Powrót do katalogu

COSMOS 990

AktywnyMilitariaLEO
NORAD 10676·PAYLOAD·🇷🇺 Russia

Wystrzelony Feb 17, 1978 z Plesetsk Cosmodrome

Loading…

Następne Przeloty (najbliższe 24 godziny)

TLE

ŚwieżeSource: Space-Track

Epoka: Sep 14, 2026, 04:58 UTC

1 10676U 78019A   26257.20735712  .00000099  00000-0  42082-4 0  9992
2 10676  74.0412 347.3065 0017377 296.7275  63.2100 14.37267096542818

Śledź COSMOS 990 w czasie rzeczywistym z AllMySat

Download on the App Store